Weather History for KGOK - November, 2011

Change the Weather History Date:

Thursday, November 3, 2011

  Actual Average Record
Temperature  
Mean Temperature 44 °F -  
Max Temperature 55 °F 63 °F 84 °F (1978)
Min Temperature 30 °F 40 °F 11 °F (1991)
Degree Days  
Heating Degree Days 20    
Moisture  
Dew Point 24 °F    
Average Humidity 52    
Maximum Humidity 79    
Minimum Humidity 24    
Precipitation  
Precipitation 0.00 in - - ()
Sea Level Pressure  
Sea Level Pressure 30.34 in    
Wind  
Wind Speed 9 mph (NNW)    
Max Wind Speed 15 mph    
Max Gust Speed 26 mph    
Visibility 10 miles    
Events      
Averages and records for this station are not official NWS values.
T = Trace of Precipitation, MM = Missing Value Source: NWS Daily Summary

Daily Weather History Graph

Daily Weather History Graph

Search for Another Location

Airport or City:

Trip Planner

Search our weather history database for the weather conditions in past years. The results will help you decide how hot, cold, wet, or windy it might be!

Date:

Astronomy

Nov. 03, 2011 Rise Set
Actual Time 7:53 AM CDT 6:32 PM CDT
Civil Twilight 7:27 AM CDT 6:58 PM CDT
Nautical Twilight 6:56 AM CDT 7:29 PM CDT
Astronomical Twilight 6:26 AM CDT 7:59 PM CDT
Moon 2:45 PM CDT (11/3) 1:20 AM CDT (11/3)
Length of Visible Light 11h 31m
Length of Day
10h 38m
First Quarter, 60% of the Moon is Illuminated
Nov 3
First Quarter
Nov 10
Full
Nov 18
Last Quarter
Nov 25
New
Dec 2
First Quarter

Hourly Weather History & Observations

Time (CDT) Temp. Windchill Dew Point Humidity Pressure Visibility Wind Dir Wind Speed Gust Speed Precip Events Conditions
12:31 AM 39.2 °F 32.0 °F 30.2 °F 70% 30.30 in 10.0 mi North 11.5 mph 26.5 mph N/A   Scattered Clouds
12:53 AM 41.0 °F 35.2 °F 30.0 °F 65% 30.31 in 10.0 mi NNW 9.2 mph 23.0 mph N/A   Clear
1:53 AM 39.0 °F 31.4 °F 30.0 °F 70% 30.31 in 10.0 mi NW 12.7 mph 23.0 mph N/A   Clear
2:53 AM 37.9 °F 30.9 °F 30.9 °F 76% 30.32 in 10.0 mi NW 10.4 mph 21.9 mph N/A   Clear
3:53 AM 37.9 °F 29.2 °F 28.9 °F 70% 30.33 in 10.0 mi NW 15.0 mph 20.7 mph N/A   Clear
5:53 AM 37.0 °F 31.0 °F 27.0 °F 67% 30.35 in 10.0 mi NW 8.1 mph 16.1 mph N/A   Clear
6:53 AM 36.0 °F 28.0 °F 26.1 °F 67% 30.37 in 10.0 mi WNW 11.5 mph - N/A   Clear
8:53 AM 37.9 °F 32.1 °F 25.0 °F 60% 30.39 in 10.0 mi NNW 8.1 mph 19.6 mph N/A   Clear
9:53 AM 41.0 °F 34.3 °F 25.0 °F 53% 30.42 in 10.0 mi NNW 11.5 mph 19.6 mph N/A   Clear
10:53 AM 45.0 °F 38.9 °F 25.0 °F 46% 30.42 in 10.0 mi NNW 12.7 mph 19.6 mph N/A   Clear
11:53 AM 46.9 °F - 24.1 °F 41% 30.41 in 10.0 mi NNW 9.2 mph 25.3 mph N/A   Clear
12:53 PM 50.0 °F - 21.9 °F 33% 30.38 in 10.0 mi NNW 10.4 mph 24.2 mph N/A   Clear
1:53 PM 52.0 °F - 19.9 °F 28% 30.35 in 10.0 mi NNW 8.1 mph 20.7 mph N/A   Clear
2:53 PM 54.0 °F - 19.9 °F 26% 30.32 in 10.0 mi NNW 9.2 mph 18.4 mph N/A   Clear
3:53 PM 55.0 °F - 19.0 °F 24% 30.30 in 10.0 mi North 6.9 mph - N/A   Clear
4:53 PM 54.0 °F - 19.0 °F 25% 30.29 in 10.0 mi NNW 5.8 mph - N/A   Clear
5:53 PM 52.0 °F - 19.0 °F 27% 30.30 in 10.0 mi NW 8.1 mph 16.1 mph N/A   Clear
6:53 PM 48.0 °F - 19.9 °F 33% 30.30 in 10.0 mi Calm Calm - N/A   Clear
7:53 PM 44.1 °F - 23.0 °F 43% 30.30 in 10.0 mi Calm Calm - N/A   Clear
9:53 PM 36.0 °F - 24.1 °F 62% 30.31 in 10.0 mi Calm Calm - N/A   Clear
10:53 PM 34.0 °F - 25.0 °F 70% 30.32 in 10.0 mi Calm Calm - N/A   Clear
11:53 PM 30.9 °F - 25.0 °F 79% 30.31 in 10.0 mi Calm Calm - N/A   Clear